Wind_Speed
40 40 39 38 38 37 36 36 35 34 32 31 31 30 30 29 28 27 25 23 22 20 19 17 16 15 14 14 14 13 11 10 11 10 9 11 16 22 28 34 40 44 46 47 47 46 45 44 43 43 42 41 40 40 40 38 37 36 35 35 34 33 32 32 32 31 31 30 29 29 28 26 23 22 23 25 28 30 33 35 36 36 34 33 30 28 27 27
42 42 41 41 40 39 39 38 37 36 35 34 33 33 33 32 31 30 28 26 25 23 22 20 19 18 17 17 17 16 15 13 14 12 10 11 12 16 21 27 33 39 43 46 47 48 47 47 47 46 45 44 44 44 43 42 41 39 37 37 37 35 34 35 35 34 33 32 31 30 29 28 27 27 28 29 31 32 34 34 33 32 30 28 27 27 27 28
44 44 43 43 42 42 41 40 40 39 38 37 36 36 35 35 34 32 31 29 28 27 25 24 22 21 20 20 19 19 18 17 17 15 13 15 13 12 16 20 26 32 38 43 46 48 49 49 49 49 47 47 47 46 46 45 43 42 41 40 40 38 37 37 37 35 34 33 33 32 30 30 30 30 30 31 32 33 33 31 29 29 26 25 26 26 26 27
46 46 46 45 45 44 44 43 42 42 41 40 39 38 38 37 37 35 34 32 31 29 28 27 25 24 23 23 22 22 21 19 21 19 17 17 14 13 14 15 19 24 30 36 41 45 48 50 50 50 50 49 49 48 48 46 45 44 43 43 42 41 40 39 38 36 35 35 34 33 33 33 32 32 32 32 32 32 30 28 28 27 24 24 24 24 24 25
49 48 48 48 47 47 46 46 45 44 43 43 42 41 41 40 39 38 37 35 33 32 31 30 29 27 26 26 25 25 24 22 24 23 19 19 17 16 16 15 17 19 23 28 34 40 44 47 49 50 50 51 51 51 50 48 47 46 45 45 44 43 42 41 40 38 36 36 35 35 35 35 35 35 35 33 32 30 27 26 26 23 22 23 23 23 24 24
51 51 50 50 50 49 49 48 47 47 46 46 45 44 44 43 42 41 40 38 36 35 34 33 32 30 29 29 28 28 26 24 27 26 21 21 21 20 20 18 18 17 19 21 26 32 37 42 45 47 48 50 51 51 50 49 48 47 46 46 46 45 44 43 41 40 39 38 37 36 36 36 35 36 35 34 31 28 24 23 22 21 22 22 21 22 24 24
54 53 53 52 52 52 51 51 50 49 49 48 48 47 46 46 45 44 43 41 39 38 37 36 34 33 32 32 31 30 29 28 29 28 25 24 25 25 23 21 20 19 18 18 21 24 29 35 39 43 45 47 48 49 49 49 49 48 47 47 47 46 45 45 43 42 41 40 39 38 37 37 36 36 34 32 29 24 21 20 19 19 20 20 21 22 24 24
56 56 55 55 54 54 53 53 52 52 51 51 50 49 49 48 48 47 46 44 43 41 40 39 37 36 36 35 34 32 31 32 31 29 29 29 28 28 26 25 23 22 19 19 20 21 24 28 32 37 41 43 45 46 47 48 48 48 48 47 47 46 46 46 44 43 42 41 40 40 38 37 36 35 33 30 24 19 19 18 16 18 19 20 21 22 23 23
58 58 58 57 57 56 56 55 55 54 53 53 52 52 51 50 50 49 48 47 45 44 42 41 40 39 39 38 37 34 33 35 33 31 33 33 30 30 30 28 27 25 23 22 21 21 22 22 25 29 33 37 40 42 44 45 46 46 46 46 46 46 46 46 44 43 43 42 41 40 38 36 35 34 31 26 19 17 19 17 15 16 18 19 19 20 21 20
59 60 60 59 59 59 58 58 57 56 56 55 54 54 53 52 52 51 50 49 48 46 45 44 42 42 41 41 40 36 36 38 36 33 35 35 33 32 33 32 30 28 26 25 24 23 22 20 20 22 26 30 34 37 40 41 42 43 44 44 44 44 45 45 44 42 42 42 41 39 36 34 32 29 24 20 18 18 17 15 14 14 16 17 17 18 18 19
60 60 61 61 60 60 60 60 59 58 58 57 56 56 55 54 53 53 52 51 50 48 47 46 45 44 43 44 42 37 38 42 39 36 36 37 36 35 35 35 33 31 30 29 28 25 22 20 20 20 22 24 27 31 34 35 37 39 40 41 41 42 43 43 43 41 40 40 39 36 34 31 27 24 21 19 19 18 15 13 13 13 14 14 14 15 17 18
61 61 61 61 61 61 61 61 61 60 59 59 58 57 56 56 55 55 54 53 52 50 49 48 47 46 46 46 43 39 41 44 42 39 38 39 38 37 38 38 36 34 33 32 31 28 25 23 21 22 22 21 22 25 27 29 31 33 35 36 37 39 40 41 40 39 38 37 36 34 31 27 24 23 21 20 19 16 14 12 12 12 12 12 12 13 15 18
61 61 61 62 62 62 62 62 61 61 61 60 60 59 58 58 57 56 55 55 54 52 51 50 49 48 48 49 45 41 43 45 45 43 41 39 39 40 40 40 39 37 36 36 34 32 29 26 25 25 23 21 22 22 21 23 26 28 30 32 33 35 36 36 36 36 35 34 33 31 27 24 23 23 21 20 18 15 13 12 12 12 11 11 10 11 13 17
62 62 62 63 63 63 63 63 62 62 62 61 61 60 60 59 58 58 57 57 56 55 53 51 51 50 51 52 46 43 46 48 49 46 41 39 39 42 43 42 42 40 39 38 37 36 33 30 29 27 25 25 25 21 19 21 23 24 26 28 30 31 30 31 31 32 31 30 29 27 24 22 22 22 20 18 17 15 14 12 11 11 10 10 9 9 10 14
65 65 65 65 65 65 64 64 64 64 63 63 62 61 61 61 60 60 59 58 57 56 55 53 53 52 54 55 48 46 49 50 50 47 42 41 41 43 46 45 44 43 42 41 40 39 37 34 32 31 30 29 26 22 21 23 23 22 24 26 28 27 26 27 28 28 28 27 26 24 21 21 21 21 19 17 17 15 14 13 11 11 10 9 8 7 8 12
68 68 68 67 68 68 67 67 67 66 66 65 64 63 63 62 62 61 61 60 59 58 57 55 55 54 56 57 52 49 50 51 51 48 46 45 44 45 48 47 46 46 45 44 43 41 39 38 36 35 34 31 28 26 25 25 24 24 26 26 26 24 24 25 26 25 25 25 24 22 20 20 20 19 17 17 18 16 14 13 12 11 9 8 8 7 8 10
72 72 72 71 71 71 71 70 70 70 69 68 68 66 65 64 64 63 63 62 60 59 58 57 57 56 58 59 56 53 52 53 52 51 50 49 46 46 48 49 48 48 47 46 44 43 42 41 40 39 37 34 33 30 27 27 29 29 29 27 25 23 23 24 24 24 24 24 23 21 20 20 19 18 18 18 18 16 15 13 11 10 9 9 9 9 9 8
76 76 76 76 75 75 75 74 74 73 73 72 71 70 68 67 66 66 66 65 63 62 60 59 59 59 60 61 60 57 55 54 54 54 54 52 50 48 49 51 50 49 49 47 47 46 44 44 43 41 40 38 36 33 32 35 35 33 31 28 25 23 23 25 24 23 24 24 22 21 20 20 18 18 18 19 19 16 15 14 12 10 10 10 9 9 9 8
81 81 81 81 80 80 79 78 78 77 77 76 75 74 72 71 69 69 69 68 67 65 63 61 61 61 64 65 64 61 57 56 56 57 57 56 53 51 51 52 51 50 49 49 50 48 47 46 44 43 43 42 42 40 40 41 38 33 31 28 26 24 25 25 24 23 24 24 23 22 21 20 18 18 20 20 19 17 15 15 13 10 10 9 9 9 9 8
83 84 84 85 84 84 84 83 82 82 81 81 79 78 76 75 73 72 72 72 72 69 67 65 64 64 67 69 68 65 61 59 58 59 59 59 56 53 52 53 53 51 50 51 52 51 49 46 44 46 48 48 47 45 44 43 39 35 33 31 28 27 27 26 25 25 25 25 24 24 22 20 19 19 20 21 20 18 16 15 14 11 10 10 10 9 9 8
85 85 86 87 87 87 87 87 87 86 86 85 84 83 81 79 78 76 75 76 77 73 70 69 67 67 72 73 70 68 66 61 60 62 62 61 59 56 54 54 54 53 54 55 54 52 49 46 48 51 52 50 49 47 46 45 42 39 36 34 32 31 29 28 27 27 27 26 26 25 24 22 21 20 21 22 21 19 18 16 15 14 12 11 11 10 9 8
86 86 87 88 88 88 88 89 89 89 89 89 88 87 86 84 83 81 79 81 82 77 74 75 72 71 76 77 73 70 67 64 64 65 64 63 62 58 57 57 56 57 59 57 55 52 48 49 55 55 53 52 51 48 47 47 46 43 40 37 36 34 32 30 30 30 29 29 29 28 27 26 23 21 22 23 22 21 19 18 17 16 15 12 12 11 10 10
89 89 89 89 90 90 89 90 89 89 90 90 90 89 89 88 87 86 84 85 87 84 79 78 77 77 79 80 75 70 68 68 68 68 66 65 63 63 61 59 58 61 61 56 55 53 52 57 60 56 54 54 52 51 50 49 48 45 42 40 39 38 36 34 34 33 33 34 34 32 31 29 25 22 24 25 23 23 21 20 20 18 16 14 13 12 10 11
89 90 91 91 92 92 91 92 91 91 91 90 90 90 90 89 89 88 88 89 90 89 86 83 81 81 82 83 78 71 70 72 71 71 69 67 66 67 64 62 62 63 60 58 57 56 57 62 61 56 56 55 54 52 50 49 48 47 44 43 43 43 41 40 38 37 37 37 36 35 33 31 27 24 26 27 25 24 24 22 21 19 18 16 14 12 11 11
87 89 90 90 92 93 93 93 94 93 93 92 92 91 90 90 89 88 89 91 91 91 90 88 85 85 86 86 81 75 74 75 75 75 73 70 70 69 68 67 65 63 62 61 60 58 61 64 60 57 57 55 54 53 51 50 49 48 46 46 47 46 45 44 42 41 40 38 38 38 35 33 31 28 29 29 26 26 26 24 23 20 20 18 14 13 13 13
85 86 87 88 89 91 92 92 93 94 94 94 94 93 92 91 91 90 90 92 92 90 91 91 90 88 88 88 85 80 77 78 80 80 77 75 74 74 73 70 67 65 65 65 63 61 63 64 61 59 58 57 56 54 53 52 50 49 48 50 50 49 48 47 46 44 42 40 40 40 38 37 35 31 30 30 28 27 27 26 25 22 21 19 16 14 13 14
86 86 87 87 87 89 90 90 91 92 92 93 93 93 94 94 93 92 92 94 92 90 91 91 91 91 89 88 88 86 82 81 85 85 81 80 80 79 76 73 70 70 70 69 65 62 65 65 62 61 61 60 56 54 55 54 52 51 53 54 53 51 52 51 49 46 44 45 43 41 41 40 37 33 31 31 29 27 27 29 30 25 22 20 17 16 14 14
87 87 88 88 88 88 90 90 90 90 90 91 91 92 92 93 94 94 95 96 94 92 92 92 91 92 91 89 89 90 88 88 90 90 87 85 85 83 80 77 75 74 74 72 66 65 70 69 66 66 66 62 58 59 60 57 54 56 58 57 55 54 55 55 52 49 48 49 46 43 42 41 37 35 33 30 29 28 28 32 34 29 24 21 19 18 16 15
87 87 88 88 88 88 89 90 90 90 90 89 90 90 90 91 92 92 94 96 95 94 94 94 94 94 93 92 90 91 92 92 94 94 92 90 88 86 84 81 80 79 78 74 70 72 75 73 71 70 67 63 62 64 63 59 57 61 62 59 57 57 57 57 54 52 52 49 46 44 42 40 37 35 33 30 29 29 30 35 37 33 27 23 21 20 18 16
87 87 87 88 88 88 88 88 89 90 90 89 89 89 89 89 89 90 92 94 93 94 95 97 97 97 97 96 94 93 93 95 96 96 95 94 92 90 87 86 85 82 80 77 75 75 77 76 74 70 66 65 67 68 65 61 62 65 64 61 59 58 58 58 55 54 53 47 44 44 41 39 37 35 34 33 34 33 34 37 40 37 32 26 22 22 21 19
86 87 87 87 87 87 87 86 86 87 89 89 89 88 88 88 88 89 90 90 90 92 95 97 99 100 100 100 97 94 94 97 98 98 97 97 96 94 91 90 88 84 82 80 77 78 80 79 74 70 69 69 70 69 66 64 65 66 64 62 61 60 60 58 56 55 50 44 44 44 42 39 37 37 38 39 38 37 37 39 40 40 37 30 25 23 23 21
84 86 87 88 87 87 86 85 84 84 85 86 87 87 87 87 88 88 88 88 88 90 93 95 98 99 101 101 100 98 96 98 100 99 97 96 95 95 93 92 90 86 83 81 80 81 82 79 76 75 73 72 71 71 69 67 67 67 66 65 63 61 60 58 56 53 48 44 45 45 42 40 39 40 42 42 41 40 40 41 40 40 39 35 28 25 24 23
81 84 86 87 88 87 85 85 83 82 82 82 83 84 84 85 86 87 87 86 87 88 90 93 96 98 99 99 100 101 100 100 102 101 99 97 95 94 94 94 93 91 87 86 87 86 84 82 80 78 75 74 74 73 71 68 67 67 67 65 63 61 58 55 54 52 48 46 47 47 45 42 42 44 46 46 45 44 42 41 39 38 40 39 33 26 25 25
78 80 83 85 86 85 84 84 83 82 81 80 80 80 81 82 83 84 84 85 86 87 89 92 95 97 98 97 99 102 104 104 104 104 102 100 98 96 96 96 97 96 94 95 95 91 89 87 82 78 77 77 77 76 73 71 71 69 68 67 65 61 57 55 55 55 53 52 53 53 49 44 45 48 50 50 48 46 43 41 39 37 38 40 37 30 27 27
74 74 76 79 82 82 80 80 81 81 81 80 80 79 79 79 80 81 81 82 84 85 87 90 93 96 97 96 97 101 104 106 106 106 106 103 101 100 99 99 100 101 101 102 99 95 93 89 84 83 83 82 80 78 77 76 74 72 72 70 65 60 59 60 60 59 59 59 59 56 49 47 50 52 53 53 49 47 45 41 38 36 36 38 39 35 31 30
69 68 69 71 76 78 75 74 76 77 78 79 79 79 78 78 79 79 79 80 82 83 85 88 91 95 95 95 97 100 102 105 106 107 107 106 105 102 102 102 103 102 102 100 97 95 93 89 88 89 87 84 81 80 81 79 75 74 74 69 63 63 65 65 63 62 62 61 58 55 51 51 55 54 54 53 48 46 44 40 38 38 37 37 40 40 36 32
64 62 62 64 68 71 69 68 70 71 73 75 76 76 76 76 77 78 78 78 79 81 84 87 89 92 94 95 97 100 102 104 105 107 107 108 107 105 104 104 104 103 100 96 92 93 91 89 90 90 87 84 83 83 84 82 78 77 73 68 67 71 71 68 66 64 62 59 56 55 54 56 57 55 54 53 49 47 45 42 40 40 38 37 40 44 42 37
58 56 56 57 60 62 63 63 64 65 67 68 70 70 70 72 74 75 75 75 77 79 82 85 87 90 93 95 97 100 102 103 104 106 107 107 108 108 107 106 106 105 102 96 93 93 90 89 92 91 87 85 86 88 88 85 81 77 73 72 75 75 71 68 66 63 60 58 57 58 59 59 57 56 57 55 51 50 49 46 43 42 41 39 40 45 46 42
52 51 50 50 52 54 56 58 59 60 61 62 63 64 64 66 69 70 70 71 74 77 80 82 85 89 93 95 97 98 100 102 104 106 107 107 107 108 109 109 107 106 103 99 96 94 90 89 92 91 88 89 92 93 90 85 80 78 77 78 78 75 72 70 68 65 63 61 61 62 61 59 57 59 61 57 53 53 52 48 45 43 42 41 41 44 48 46
47 47 47 46 46 47 48 51 53 55 57 58 58 58 59 61 62 63 64 67 69 72 76 79 83 88 92 95 96 97 98 101 104 106 108 107 107 108 109 109 109 107 104 101 98 96 93 90 90 91 90 93 95 94 88 83 80 79 79 79 77 75 73 72 70 68 67 65 64 64 61 58 59 62 62 58 55 54 53 50 46 43 42 42 43 43 46 49
44 44 44 44 43 43 43 43 46 49 51 53 53 54 56 56 56 56 58 61 64 66 71 75 79 85 90 94 96 96 97 100 104 107 107 107 108 108 108 108 109 108 106 102 98 97 95 91 91 93 93 93 93 89 84 81 81 81 80 79 78 75 75 75 72 68 66 64 64 63 61 61 63 63 61 59 56 55 54 52 48 44 42 43 44 43 45 50
44 41 41 43 42 41 41 40 40 42 44 46 48 49 52 53 51 50 52 55 57 60 66 70 74 81 88 92 95 96 98 101 104 105 106 106 108 109 108 107 107 107 107 105 101 99 97 93 93 95 95 92 89 85 83 83 83 84 84 83 82 80 78 76 71 67 66 65 64 64 62 62 63 61 60 59 57 55 54 51 47 45 43 43 44 45 45 50
44 40 37 38 40 39 39 39 39 39 39 40 42 44 47 48 48 47 48 49 49 53 60 65 70 77 84 90 93 95 99 102 102 103 105 106 107 109 109 107 105 104 105 105 103 101 99 95 93 95 95 92 89 86 85 85 86 87 88 86 84 81 78 75 72 70 71 69 68 67 64 63 62 60 59 58 56 54 51 48 46 45 44 44 45 46 47 51
45 43 37 35 36 36 36 36 37 37 36 35 36 38 41 42 44 45 45 45 45 48 54 59 65 73 80 86 90 94 98 101 101 101 103 105 107 108 109 108 106 103 103 103 104 103 100 97 94 95 96 95 93 91 89 88 89 89 89 86 83 79 77 77 76 75 74 72 71 69 65 65 64 60 59 59 57 54 51 48 47 46 45 44 45 47 48 51
43 45 42 37 35 35 35 34 34 35 34 33 33 34 35 37 39 41 41 42 43 44 48 53 60 69 75 81 86 91 95 97 99 101 102 104 107 108 108 108 106 104 102 101 102 102 101 99 97 97 98 98 96 94 92 92 92 90 87 84 80 79 78 79 78 76 73 71 71 67 64 65 64 60 59 59 56 53 52 49 47 46 45 44 46 49 50 51
41 41 43 40 36 35 34 32 32 33 32 32 31 31 31 32 34 36 38 39 40 42 45 49 56 64 71 77 82 87 91 94 97 100 101 103 106 107 107 107 107 105 102 100 99 100 100 99 99 99 99 96 94 92 91 92 91 88 85 81 79 79 79 80 79 74 70 70 69 65 63 64 63 59 59 57 53 52 52 50 47 45 45 45 47 49 50 51
41 39 40 40 37 35 33 31 30 30 30 29 29 28 28 29 30 32 34 36 38 40 42 47 53 59 66 72 77 82 86 90 94 98 100 102 105 105 106 107 107 106 103 100 97 97 98 98 99 99 97 94 92 90 90 90 89 86 84 82 80 79 79 78 75 71 68 68 66 62 63 64 62 60 58 55 53 51 52 51 47 44 45 47 48 49 50 52
43 40 38 37 36 35 34 32 30 29 28 27 26 25 25 25 26 28 30 32 35 37 41 45 50 55 62 68 73 77 81 85 91 95 98 101 103 104 105 106 106 105 104 100 97 96 96 96 97 97 97 95 93 93 92 90 87 84 83 83 81 79 77 74 71 69 67 65 64 63 64 64 63 60 56 55 54 52 51 52 47 43 45 48 49 50 50 51
43 42 40 38 36 35 35 33 32 30 29 26 25 24 23 23 23 24 26 29 32 35 39 44 48 53 59 64 69 73 76 81 87 93 95 99 102 102 103 105 105 104 103 101 98 96 94 94 94 95 96 96 96 95 93 88 84 82 81 81 79 78 76 73 71 71 68 65 65 67 67 65 64 62 58 57 55 51 51 52 47 44 47 49 49 50 50 51
42 42 42 41 39 37 36 35 33 31 29 27 25 23 22 21 20 21 23 26 28 32 37 41 45 50 55 60 65 69 72 77 84 89 92 96 100 101 102 103 104 103 102 100 98 96 94 92 92 92 94 96 96 95 92 88 84 81 79 78 78 78 76 75 75 73 70 68 69 69 69 67 67 64 61 58 55 52 52 52 47 45 48 50 50 50 50 50
42 41 41 41 40 39 38 36 34 32 29 27 24 22 21 20 19 18 20 23 25 29 34 38 42 47 50 54 59 64 68 74 80 85 89 93 98 100 101 102 103 103 102 100 98 97 94 92 91 90 92 94 95 95 92 89 85 81 78 78 79 79 78 76 76 74 72 71 72 71 71 70 69 67 63 60 57 53 52 51 48 46 48 49 49 50 49 48
41 41 40 40 40 40 40 37 35 32 29 27 25 22 20 19 18 16 17 20 23 27 32 35 38 42 45 49 55 60 65 70 76 81 86 91 97 100 100 100 101 102 102 100 98 97 95 92 91 90 91 93 94 93 91 89 85 83 82 81 82 82 78 75 74 74 74 74 74 73 73 72 71 69 65 62 58 53 52 51 49 47 48 48 48 49 48 45
Wind_Direction
256 256 256 256 256 256 256 255 255 255 255 256 257 258 259 260 261 262 261 260 257 253 250 249 247 247 248 248 249 245 238 237 242 239 232 230 224 221 221 222 222 222 222 223 224 225 226 226 227 227 226 226 229 232 235 237 238 239 240 242 243 244 246 248 250 251 253 256 259 262 264 264 265 270 273 277 284 291 298 304 310 312 313 312 313 317 319 320
256 256 256 256 256 256 256 256 255 255 255 255 256 257 258 259 260 261 261 260 259 256 253 250 248 248 247 247 247 246 241 236 239 239 238 239 233 227 224 223 224 224 224 224 225 226 227 228 228 229 230 230 231 232 235 237 239 240 241 243 245 246 247 249 250 252 254 257 260 262 264 263 265 273 277 280 285 291 299 306 311 312 313 313 315 319 319 321
256 256 256 256 256 257 257 256 256 256 255 255 255 256 257 258 258 259 259 260 260 259 256 251 249 249 248 247 246 246 244 240 239 235 235 239 236 234 231 227 226 226 226 226 226 227 228 229 230 231 232 233 234 235 236 236 237 240 242 244 246 248 248 249 251 253 255 258 261 262 263 264 268 274 278 282 287 293 300 307 310 311 313 315 318 319 321 324
256 256 256 256 256 257 257 257 257 256 256 256 256 256 256 257 258 258 258 258 259 259 257 254 250 250 250 249 246 245 243 243 243 234 230 239 238 237 239 235 232 229 228 229 228 228 228 230 231 232 233 235 236 238 239 239 240 241 242 244 246 247 248 250 251 254 256 257 259 262 264 266 271 276 280 284 288 294 301 305 305 307 311 315 318 319 323 328
256 257 256 256 256 257 257 258 258 257 257 256 256 256 256 257 258 258 258 257 257 257 257 256 252 251 251 250 248 246 243 243 246 237 228 237 240 238 240 238 237 234 230 230 230 230 230 230 231 232 233 235 236 238 241 242 243 244 244 245 247 247 248 250 251 252 254 255 257 261 264 267 272 275 280 284 287 293 299 301 301 305 311 316 318 321 327 331
257 257 257 257 257 257 257 258 258 258 258 257 257 256 257 257 258 258 258 257 256 256 256 256 254 252 251 251 250 247 244 243 246 242 231 233 237 236 237 236 236 237 235 232 232 232 232 232 232 232 233 234 236 237 239 241 242 244 244 246 247 247 248 249 250 251 252 254 256 259 262 267 271 274 278 282 287 291 295 296 298 306 314 319 320 326 332 335
257 257 257 257 257 257 257 257 258 258 258 258 257 257 257 257 258 258 258 258 257 256 256 256 255 253 252 251 250 248 246 244 245 245 237 233 235 234 234 235 235 235 235 236 234 233 233 233 233 233 233 234 235 237 238 239 240 241 241 242 244 245 246 247 248 249 250 252 255 257 261 265 269 273 276 281 286 289 289 290 297 309 316 320 324 332 336 337
258 258 258 257 257 257 257 258 257 258 258 258 258 258 257 257 257 258 258 258 258 257 256 256 255 254 253 252 251 249 249 246 243 245 242 235 234 235 233 233 235 235 233 234 235 235 234 233 234 234 234 235 235 236 237 238 239 239 240 240 241 243 244 245 246 248 250 251 254 257 259 263 267 270 274 278 281 282 282 285 298 311 317 321 327 336 339 338
258 258 258 258 258 257 257 258 258 258 257 258 258 258 257 257 257 257 257 258 258 257 257 256 255 254 254 253 251 249 251 248 242 244 245 239 235 236 235 231 232 234 233 232 233 234 235 234 234 235 235 236 236 236 237 238 239 240 240 240 241 242 244 245 246 247 249 251 253 256 259 262 264 268 272 273 272 272 276 283 298 310 318 326 332 339 340 340
259 259 258 258 258 258 258 258 258 258 257 257 257 257 257 257 257 257 256 256 256 256 256 256 255 254 254 253 251 250 252 250 243 242 246 243 238 237 237 233 231 231 232 234 232 232 234 234 235 236 235 235 235 236 237 238 239 240 241 241 241 242 244 245 246 246 249 251 253 255 258 260 262 266 266 264 265 268 272 283 299 309 321 331 335 340 342 344
260 260 260 259 259 259 258 258 258 258 258 257 257 256 256 256 256 256 256 256 255 255 255 255 255 254 253 252 251 250 252 251 245 240 244 245 240 238 239 236 232 230 230 233 234 233 230 230 232 235 236 236 235 236 236 237 238 239 241 242 242 243 244 246 246 246 248 250 252 253 255 256 256 255 250 255 261 263 269 285 298 307 321 332 337 342 345 348
261 261 261 260 260 259 259 259 258 258 258 257 257 256 256 255 255 255 255 255 255 254 254 254 254 254 253 252 250 249 250 251 248 241 242 245 243 240 240 238 235 231 230 230 234 235 230 226 228 232 234 235 236 236 236 235 236 237 238 240 241 242 243 245 246 246 246 247 249 249 249 248 245 244 245 252 255 257 268 282 292 303 321 331 337 342 346 349
263 262 262 261 261 260 260 259 259 258 258 257 257 256 256 255 254 254 254 254 254 254 254 253 253 253 253 251 248 248 249 250 249 242 239 243 244 242 240 240 237 234 232 230 230 233 232 228 227 229 231 232 234 234 234 235 234 233 234 235 236 238 240 242 244 245 244 243 244 243 242 237 237 242 246 248 249 255 266 276 287 302 320 328 336 342 345 348
264 263 263 262 262 261 261 260 259 259 258 257 257 256 256 255 254 254 253 253 253 252 252 252 253 252 252 251 246 246 247 247 248 244 240 243 245 245 242 240 238 235 234 232 230 230 231 230 229 230 230 230 230 228 229 233 234 232 232 232 233 234 235 237 239 240 240 238 237 236 232 226 230 238 241 244 249 255 264 273 285 300 316 322 335 344 344 347
264 264 263 263 262 262 261 260 260 259 259 258 257 256 256 255 255 254 253 253 252 251 251 250 251 251 251 250 246 244 245 245 247 246 243 243 244 244 242 239 238 236 234 233 231 229 229 229 229 230 230 231 231 228 225 230 233 232 232 231 231 230 228 230 232 234 235 234 232 228 223 219 225 232 235 245 253 255 263 272 282 296 309 317 328 341 347 349
264 264 263 262 262 262 261 261 260 259 259 258 257 256 256 255 255 254 253 252 252 251 251 250 250 249 250 250 245 243 244 244 246 246 244 241 240 242 241 239 238 237 234 233 233 231 229 228 228 230 231 232 231 229 227 230 231 230 230 229 229 227 223 225 227 228 231 231 230 225 216 212 219 229 234 245 252 255 262 269 282 293 302 313 319 332 349 350
265 264 263 262 262 261 261 260 260 259 259 258 257 257 256 255 255 255 254 252 251 251 250 250 250 249 249 249 246 242 242 243 244 245 245 241 239 240 242 240 238 237 236 234 233 233 231 229 228 229 231 231 231 230 229 231 229 226 227 226 226 223 220 223 222 222 225 227 227 221 213 209 214 228 236 242 249 254 261 268 281 291 295 308 316 325 340 346
265 264 263 262 261 261 260 260 259 259 258 258 257 257 256 255 255 255 254 253 251 250 249 249 250 250 250 248 246 242 240 241 243 244 244 242 239 237 239 240 238 237 237 235 233 232 231 231 229 229 230 230 230 228 227 230 227 223 225 224 224 223 222 224 221 218 221 224 223 218 214 213 215 227 237 242 248 253 261 268 276 284 291 303 312 317 328 338
264 264 263 263 262 261 260 259 259 258 258 257 257 256 256 255 254 254 254 254 252 250 249 248 248 249 249 249 246 243 241 240 241 243 243 242 239 237 237 238 238 237 237 236 235 232 231 231 231 230 230 228 228 226 226 230 229 226 226 225 224 225 227 229 226 221 222 224 223 219 217 217 218 226 236 242 249 254 261 268 273 278 284 293 302 307 316 331
264 263 263 262 261 261 260 259 259 258 258 257 256 256 255 254 254 253 253 253 252 251 249 248 247 247 248 248 247 244 242 240 240 242 243 243 240 238 237 237 237 236 236 236 235 233 231 231 232 231 230 228 228 228 229 232 233 230 229 228 226 226 229 233 233 229 226 226 227 224 221 220 221 226 236 244 250 254 259 265 272 274 276 283 291 297 304 319
264 263 263 262 261 260 260 259 258 258 257 257 256 255 255 254 253 252 252 253 252 250 249 248 246 246 246 245 245 245 243 241 241 241 242 242 240 238 236 236 236 235 234 233 233 233 231 232 232 232 231 229 229 230 231 233 234 232 232 231 230 229 228 232 236 236 233 232 233 231 228 225 225 229 239 246 250 254 258 262 266 268 271 275 282 288 293 302
265 264 263 263 262 261 260 259 258 257 257 256 256 255 254 253 253 252 251 252 251 249 248 248 246 245 246 246 244 244 245 243 242 241 241 241 241 239 236 234 234 234 233 232 233 233 231 232 233 231 231 231 230 229 231 233 233 233 232 232 233 232 230 230 234 238 239 236 236 235 232 229 229 233 241 247 250 253 256 258 261 265 269 272 275 279 284 289
266 265 264 264 263 262 261 260 259 258 257 256 255 254 254 253 252 252 251 251 251 249 247 247 247 246 247 248 245 244 245 245 244 242 241 240 241 239 236 233 233 234 234 232 232 231 230 232 232 231 231 232 231 230 230 232 233 233 233 233 233 232 231 229 230 233 237 237 235 235 235 233 230 234 242 246 249 252 254 256 260 264 267 268 271 274 276 280
267 266 265 264 264 263 262 261 260 259 258 257 256 254 254 253 251 251 250 250 250 250 247 245 246 246 247 247 246 244 245 245 245 244 242 240 240 239 237 234 232 233 233 232 231 230 231 234 233 232 232 232 232 232 231 232 233 234 233 234 234 232 229 228 228 230 233 237 238 237 238 238 235 234 242 246 248 252 254 256 260 262 263 265 267 271 271 272
268 267 266 265 265 264 263 262 261 260 259 258 256 255 254 253 252 250 250 249 248 248 248 246 244 245 246 248 246 244 244 244 244 244 242 240 239 239 238 235 233 232 232 232 230 229 231 235 234 232 233 233 233 233 233 232 232 233 233 235 236 233 230 228 229 230 231 235 239 240 239 239 238 235 241 247 248 252 256 257 259 259 260 263 264 265 267 268
270 269 268 267 266 265 264 262 261 260 259 258 257 256 255 253 252 251 249 249 248 247 248 247 245 243 244 246 247 244 243 244 244 243 242 241 239 238 237 235 234 232 232 231 230 229 232 234 233 233 233 233 232 232 233 233 233 232 232 234 235 234 233 231 230 231 232 233 237 239 239 239 239 237 241 247 248 252 258 259 257 254 256 261 262 259 260 263
272 270 269 268 267 266 265 263 262 261 260 258 257 256 255 254 252 251 250 249 249 247 247 247 246 244 243 243 245 244 242 241 242 242 241 240 239 238 237 235 234 233 232 231 229 230 233 234 232 232 233 232 232 233 233 232 232 232 232 232 233 234 234 232 230 230 231 232 234 238 240 240 240 240 242 247 252 254 258 260 257 252 251 254 257 254 253 256
273 272 270 269 268 267 266 265 263 262 260 259 258 256 255 254 252 251 250 249 248 247 247 246 246 245 243 241 242 242 240 239 240 240 239 238 238 238 237 235 234 233 232 231 228 229 232 232 231 231 231 230 230 231 232 231 231 233 233 232 232 233 234 233 231 230 231 233 234 236 240 242 242 243 243 246 252 254 255 257 257 253 249 249 250 250 249 250
275 274 272 271 269 267 266 265 264 263 261 259 258 256 255 253 252 251 250 249 248 247 246 246 245 244 243 241 239 240 239 238 239 239 239 238 238 238 237 236 235 233 233 231 228 229 231 231 230 230 230 230 230 231 231 229 230 233 233 233 233 233 235 234 233 232 233 234 236 237 241 244 245 245 245 245 247 249 250 254 256 255 250 247 247 249 248 246
278 276 275 273 271 269 267 265 264 263 262 260 258 257 255 253 252 250 249 248 248 247 246 245 244 243 243 241 239 238 238 238 238 238 238 238 238 237 236 235 235 234 234 232 230 230 232 231 230 230 230 230 231 232 231 230 230 233 233 233 233 234 235 235 234 234 235 236 239 240 241 244 244 245 245 242 240 241 244 249 255 257 253 247 246 248 250 247
279 278 277 275 274 272 270 267 265 264 263 261 259 257 255 254 252 250 249 247 247 246 245 244 243 242 242 242 240 238 237 239 239 238 237 237 237 237 236 236 235 234 234 234 232 232 233 233 232 231 231 230 231 232 231 231 232 234 235 234 234 234 235 236 236 236 236 237 241 241 240 241 242 242 242 240 238 239 241 246 253 258 258 253 247 248 251 250
278 278 277 277 275 274 273 271 268 266 264 262 260 258 256 254 252 250 248 246 245 244 244 244 243 242 241 241 241 239 237 237 239 238 237 237 237 237 237 237 236 234 234 234 234 233 234 234 232 231 230 230 231 232 232 231 233 235 236 236 236 236 237 238 239 239 237 238 241 241 240 239 239 240 241 240 240 239 240 244 250 257 261 260 253 249 251 251
279 278 278 277 276 276 274 273 271 269 266 264 261 259 257 255 253 251 248 246 244 243 243 243 242 241 241 239 240 240 237 236 237 238 237 236 236 236 236 236 235 234 232 231 231 231 232 232 231 231 231 231 231 232 232 232 233 235 237 237 237 237 238 239 241 240 237 237 239 238 236 235 237 239 241 241 241 240 240 244 248 254 261 264 260 254 253 253
282 280 279 278 277 276 275 274 273 271 269 266 264 261 258 256 253 251 249 246 244 242 241 241 241 240 239 238 237 238 238 236 235 235 235 234 234 234 234 234 234 233 230 229 229 229 229 229 229 229 230 230 231 231 230 230 230 232 234 234 234 234 235 235 236 236 233 232 234 234 233 234 236 238 241 242 242 242 242 244 248 251 257 263 264 260 255 254
285 283 282 280 278 277 275 274 273 272 270 268 266 263 260 257 255 252 249 246 244 241 240 239 240 240 238 237 236 236 237 237 235 234 234 233 232 232 232 233 233 232 231 229 228 227 228 228 228 227 227 227 228 229 229 229 228 230 232 232 233 233 233 233 234 234 233 232 234 235 234 235 237 237 240 242 244 246 246 246 248 250 253 259 264 261 256 253
290 287 284 281 279 278 277 274 272 271 269 268 266 264 261 258 256 253 250 246 243 241 239 238 238 239 237 235 235 235 235 236 236 235 233 233 232 231 231 231 233 233 233 232 231 229 229 228 228 228 227 227 227 228 229 229 228 229 231 232 232 232 232 232 232 233 234 234 237 238 237 238 240 240 243 245 247 248 250 250 249 250 250 255 261 261 257 253
294 290 287 283 281 280 279 276 273 270 268 266 265 263 261 258 256 253 250 247 244 241 239 237 237 237 237 234 233 234 234 234 235 235 234 233 232 231 230 230 231 232 233 233 233 232 230 229 230 231 230 230 230 230 230 229 228 228 230 230 230 231 231 231 232 234 235 236 238 239 238 239 242 244 246 246 247 248 250 250 249 250 251 252 257 260 258 253
297 294 290 287 283 282 280 278 275 272 269 267 265 262 260 258 256 253 250 247 244 241 239 237 235 235 235 234 231 231 232 232 232 233 234 233 231 230 230 230 230 231 231 230 230 231 230 230 231 232 231 231 231 231 231 231 229 229 229 229 230 232 232 233 234 235 237 237 239 239 239 240 242 245 246 246 246 247 248 247 248 250 252 251 252 256 258 254
302 298 294 290 286 284 282 280 277 274 272 269 266 264 261 258 255 253 250 247 244 241 238 236 234 234 233 233 231 229 229 230 231 231 232 232 231 230 229 229 229 230 230 229 228 228 228 228 230 230 229 229 230 231 231 231 232 231 230 231 232 232 233 233 233 234 235 235 236 238 239 241 243 245 247 246 246 247 248 247 247 248 251 251 249 251 256 256
308 304 299 295 290 286 283 281 279 277 274 272 269 266 263 259 255 252 250 247 244 241 238 235 233 233 232 231 230 228 227 228 229 229 230 230 231 230 229 228 228 228 228 228 227 227 226 226 228 229 228 228 229 230 230 230 231 232 233 234 235 235 235 235 234 234 235 236 237 239 240 242 242 244 246 247 248 249 249 249 248 247 248 249 247 247 251 254
314 312 308 304 298 292 287 283 280 277 275 274 272 270 267 262 257 253 249 246 243 240 238 235 232 232 231 230 229 228 227 226 227 227 228 228 229 230 229 228 227 227 227 227 227 227 226 224 226 229 229 230 230 230 230 229 229 231 232 233 234 234 235 236 236 236 237 238 239 241 241 242 243 245 247 248 249 249 250 249 248 246 244 244 244 242 243 248
317 318 316 311 306 301 295 289 284 280 277 274 273 270 268 266 263 257 252 247 242 239 237 234 232 231 230 229 227 226 226 226 225 225 226 226 227 229 229 228 227 226 226 225 225 225 225 223 223 227 229 230 231 230 229 229 228 229 229 230 230 230 231 233 234 234 235 236 237 239 239 241 243 245 247 248 248 248 248 249 248 245 241 239 239 237 237 241
318 317 317 314 311 308 303 297 291 286 281 277 274 270 268 267 265 261 256 250 242 237 236 234 231 230 229 228 226 224 224 224 224 224 224 224 225 226 228 228 226 225 224 225 224 224 224 222 222 225 227 229 229 228 228 229 229 229 229 229 229 230 230 231 231 231 232 233 234 235 236 238 240 242 244 245 246 246 246 247 246 243 239 236 236 235 233 236
321 318 316 316 313 310 306 302 297 293 288 282 277 273 269 267 265 262 258 253 246 237 233 231 230 229 229 228 226 224 223 223 222 222 222 223 224 224 226 227 226 224 223 223 223 223 223 221 221 223 225 226 226 225 226 227 229 229 230 230 230 230 231 231 231 231 231 232 234 235 235 237 238 238 240 242 242 243 242 241 240 239 237 234 233 234 233 234
327 324 320 319 317 314 311 308 304 299 295 289 282 277 272 267 264 262 258 254 248 240 233 229 228 228 228 227 226 224 223 222 221 221 221 221 222 222 223 225 225 224 223 222 222 222 222 221 221 222 223 224 224 224 224 225 227 228 229 230 230 230 231 232 232 232 233 234 236 236 236 238 238 238 238 240 240 241 240 238 236 236 236 234 232 233 233 233
330 330 327 324 323 320 316 314 310 304 299 294 286 280 275 269 264 261 257 253 248 242 234 227 225 225 226 227 226 224 223 221 220 220 220 220 221 221 222 223 223 224 222 220 220 221 221 220 220 222 223 224 225 225 225 226 228 229 229 229 230 230 230 231 232 232 232 234 236 236 235 237 237 236 236 238 238 239 240 238 235 234 236 235 234 233 233 233
332 335 333 330 328 324 318 317 314 308 303 298 290 283 276 270 265 259 256 252 247 242 236 229 224 223 224 225 225 224 222 221 220 220 219 219 220 219 220 221 221 222 222 220 218 219 219 220 220 221 223 224 225 225 225 226 228 229 229 229 229 230 231 232 233 233 232 233 234 234 234 235 235 234 234 235 236 236 239 239 235 233 235 236 235 234 233 233
336 338 338 336 334 331 325 323 321 316 311 305 297 289 280 273 267 261 255 251 247 241 236 232 226 222 222 223 224 223 222 220 219 219 218 219 219 218 218 219 220 220 221 219 217 217 217 218 219 220 222 223 224 225 225 225 226 227 228 229 229 230 231 232 234 234 232 232 233 233 232 233 234 233 232 233 234 234 238 240 237 233 234 235 235 234 234 233
341 342 342 342 341 339 335 332 329 325 321 314 306 297 287 277 270 264 257 250 245 240 236 232 228 223 221 221 222 222 221 219 219 219 217 218 219 218 217 217 219 219 220 219 217 216 215 216 217 218 220 221 222 224 224 224 224 225 227 229 229 230 230 231 231 232 231 230 230 231 232 232 233 232 230 230 232 233 236 239 237 233 233 234 234 235 234 233
346 347 347 347 347 346 343 339 336 332 328 322 315 306 296 285 274 266 259 251 244 240 236 232 229 226 223 220 221 221 219 218 218 218 217 217 218 218 216 216 217 217 218 218 216 215 214 214 215 216 218 220 221 222 223 223 223 224 225 228 228 228 228 227 228 229 229 228 229 230 231 231 232 232 230 229 229 231 234 237 236 233 233 234 235 236 235 234
350 351 351 352 352 352 349 345 341 338 333 328 322 314 305 294 282 270 260 252 244 239 236 233 229 228 225 221 220 220 219 217 217 217 216 215 217 218 216 214 215 215 216 216 215 214 213 212 213 215 217 219 220 221 222 221 221 221 223 225 227 227 226 225 225 226 226 227 228 229 230 231 232 231 231 230 229 229 232 235 234 232 233 234 236 237 236 235
352 353 354 355 356 356 354 350 346 343 339 335 330 323 315 303 293 281 267 255 245 239 237 233 229 228 226 221 219 218 218 217 216 216 215 213 215 217 216 214 213 213 214 214 213 213 212 211 211 213 215 217 219 219 220 220 219 219 220 222 225 225 224 223 224 225 225 226 227 228 229 231 232 231 230 230 229 228 229 232 232 231 232 233 235 237 237 236
Height
10960 10961 10962 10962 10963 10963 10964 10964 10965 10966 10967 10967 10968 10968 10969 10970 10970 10971 10972 10973 10974 10974 10975 10976 10976 10976 10976 10977 10977 10977 10978 10979 10978 10979 10979 10979 10980 10981 10982 10983 10984 10985 10986 10987 10989 10990 10992 10993 10994 10995 10997 10999 11000 11001 11001 11003 11004 11006 11007 11008 11009 11011 11013 11013 11014 11015 11016 11017 11018 11018 11018 11019 11018 11019 11020 11020 11019 11018 11018 11016 11014 11011 11010 11008 11006 11004 11002 10999
10957 10957 10958 10959 10959 10960 10960 10961 10962 10962 10963 10964 10965 10965 10966 10966 10967 10969 10969 10970 10971 10971 10972 10973 10974 10974 10974 10974 10975 10975 10976 10977 10977 10977 10978 10978 10978 10979 10979 10980 10982 10983 10984 10985 10986 10987 10989 10990 10991 10992 10994 10996 10996 10997 10998 11000 11001 11003 11005 11005 11006 11008 11011 11011 11012 11013 11015 11015 11016 11017 11017 11017 11017 11017 11018 11019 11018 11017 11016 11015 11012 11010 11009 11008 11005 11003 11001 10999
10953 10953 10954 10955 10955 10956 10957 10957 10958 10959 10960 10960 10961 10962 10963 10963 10964 10965 10967 10967 10968 10968 10969 10970 10971 10971 10972 10972 10972 10973 10974 10975 10975 10975 10976 10976 10976 10977 10977 10978 10979 10980 10981 10982 10983 10984 10985 10986 10987 10989 10991 10992 10993 10994 10995 10996 10998 11000 11002 11002 11003 11005 11008 11008 11010 11012 11013 11014 11014 11015 11016 11015 11015 11016 11017 11017 11016 11015 11015 11014 11012 11009 11008 11007 11004 11002 11000 10998
10949 10949 10950 10950 10951 10952 10952 10953 10954 10955 10956 10957 10958 10958 10959 10960 10961 10962 10963 10964 10965 10965 10965 10966 10968 10968 10969 10969 10970 10970 10971 10973 10972 10973 10974 10974 10975 10976 10976 10976 10976 10977 10978 10979 10980 10981 10981 10982 10984 10986 10988 10989 10990 10991 10991 10993 10996 10997 10999 10999 11000 11002 11004 11005 11007 11010 11011 11012 11012 11013 11013 11013 11013 11014 11014 11015 11015 11014 11014 11013 11011 11009 11007 11006 11004 11002 11000 10997
10944 10945 10945 10946 10947 10947 10948 10949 10950 10950 10952 10952 10953 10954 10955 10956 10957 10958 10959 10961 10962 10962 10962 10963 10964 10965 10965 10966 10967 10967 10969 10970 10969 10969 10973 10973 10974 10974 10974 10974 10974 10974 10975 10976 10977 10978 10978 10979 10980 10982 10984 10985 10986 10987 10988 10991 10993 10995 10996 10997 10998 10999 11001 11002 11004 11007 11008 11010 11011 11011 11011 11011 11011 11012 11012 11014 11014 11013 11013 11012 11010 11008 11007 11005 11003 11001 10999 10996
10939 10940 10940 10941 10942 10942 10943 10944 10945 10946 10946 10947 10948 10950 10950 10951 10953 10954 10955 10957 10958 10959 10959 10959 10960 10961 10962 10962 10963 10964 10966 10967 10965 10966 10970 10971 10971 10972 10972 10972 10972 10972 10973 10973 10974 10975 10975 10976 10977 10978 10980 10981 10981 10983 10985 10987 10989 10991 10993 10994 10994 10996 10998 10999 11001 11003 11005 11007 11008 11009 11009 11009 11009 11009 11011 11012 11012 11012 11012 11011 11009 11007 11005 11004 11002 11000 10998 10995
10934 10934 10935 10936 10937 10937 10938 10938 10939 10940 10941 10942 10943 10944 10946 10947 10948 10949 10950 10952 10953 10954 10955 10955 10956 10957 10957 10958 10959 10960 10962 10963 10962 10964 10967 10968 10968 10968 10969 10970 10970 10970 10971 10971 10971 10972 10972 10973 10974 10975 10976 10977 10978 10980 10981 10983 10984 10986 10988 10990 10990 10992 10994 10995 10997 10999 11001 11003 11005 11006 11007 11008 11008 11007 11009 11010 11011 11011 11010 11010 11008 11005 11003 11002 11001 10999 10997 10995
10928 10929 10929 10930 10931 10931 10932 10933 10934 10935 10936 10936 10937 10939 10940 10942 10943 10944 10945 10947 10948 10949 10951 10951 10952 10953 10953 10954 10954 10956 10958 10958 10960 10961 10962 10963 10964 10965 10966 10967 10967 10968 10969 10969 10969 10969 10969 10970 10971 10972 10973 10974 10975 10976 10977 10978 10980 10981 10984 10986 10987 10988 10989 10991 10994 10996 10998 11000 11001 11003 11005 11006 11006 11006 11007 11008 11010 11010 11008 11008 11007 11004 11002 11001 11000 10998 10996 10994
10922 10922 10922 10923 10924 10925 10926 10926 10927 10929 10930 10930 10931 10933 10934 10936 10937 10938 10940 10941 10943 10944 10945 10946 10948 10948 10949 10949 10950 10953 10953 10953 10956 10958 10956 10958 10961 10961 10962 10964 10965 10966 10967 10967 10967 10967 10967 10968 10969 10970 10970 10971 10972 10973 10973 10975 10977 10978 10980 10982 10984 10985 10986 10987 10990 10993 10995 10996 10998 11000 11003 11004 11003 11004 11005 11006 11008 11008 11007 11006 11006 11004 11002 11000 10998 10997 10995 10994
10915 10915 10916 10916 10917 10918 10919 10920 10921 10922 10923 10924 10925 10927 10928 10930 10931 10932 10934 10935 10937 10939 10940 10941 10942 10943 10944 10944 10945 10949 10949 10947 10951 10954 10952 10954 10957 10958 10958 10960 10962 10963 10964 10964 10965 10965 10965 10967 10967 10968 10968 10968 10970 10970 10970 10972 10974 10975 10977 10979 10981 10982 10982 10984 10987 10990 10992 10993 10996 10998 11000 11002 11001 11002 11003 11004 11006 11007 11005 11004 11004 11004 11002 11000 10998 10996 10995 10994
10908 10908 10908 10909 10910 10910 10911 10912 10913 10915 10916 10917 10919 10920 10922 10923 10925 10926 10928 10929 10931 10933 10935 10936 10937 10938 10938 10938 10940 10945 10944 10941 10945 10949 10948 10949 10952 10954 10954 10956 10958 10960 10961 10961 10961 10963 10964 10965 10965 10966 10966 10966 10967 10967 10968 10970 10971 10972 10974 10976 10978 10979 10979 10980 10983 10987 10990 10991 10993 10996 10997 10999 10999 11000 11002 11003 11004 11004 11003 11003 11003 11003 11002 11000 10997 10996 10995 10994
10901 10901 10901 10901 10902 10903 10904 10905 10906 10907 10908 10910 10911 10913 10915 10917 10918 10920 10921 10923 10924 10927 10929 10930 10931 10932 10932 10932 10936 10940 10939 10936 10939 10943 10944 10944 10947 10949 10950 10951 10954 10956 10957 10958 10959 10960 10962 10963 10964 10963 10964 10965 10965 10965 10967 10968 10969 10970 10971 10973 10974 10975 10977 10978 10980 10984 10987 10989 10991 10993 10995 10997 10997 10998 11000 11001 11002 11002 11002 11002 11001 11002 11001 10999 10998 10996 10995 10993
10893 10894 10894 10894 10894 10895 10896 10897 10898 10899 10900 10902 10904 10905 10907 10909 10911 10913 10915 10916 10918 10920 10922 10924 10925 10926 10925 10925 10930 10935 10933 10931 10932 10935 10939 10941 10942 10943 10945 10946 10949 10952 10953 10954 10956 10957 10959 10960 10961 10961 10962 10964 10963 10964 10966 10966 10967 10968 10969 10970 10971 10973 10975 10976 10978 10980 10984 10986 10988 10990 10993 10995 10994 10995 10997 10998 10999 11000 11000 11001 11000 11000 11000 10999 10998 10996 10995 10993
10885 10886 10886 10886 10887 10887 10888 10889 10890 10891 10892 10894 10895 10898 10899 10901 10903 10905 10907 10909 10911 10913 10916 10918 10918 10920 10918 10917 10925 10929 10926 10925 10924 10929 10936 10938 10938 10938 10939 10942 10943 10946 10948 10950 10952 10953 10955 10957 10958 10959 10960 10960 10961 10963 10965 10965 10965 10966 10967 10968 10969 10971 10973 10974 10975 10977 10980 10983 10986 10988 10991 10993 10993 10993 10995 10995 10996 10997 10998 10999 11000 10999 10999 10998 10997 10996 10995 10994
10877 10877 10878 10878 10878 10879 10880 10880 10881 10882 10884 10885 10887 10890 10891 10893 10895 10897 10900 10901 10904 10906 10909 10912 10911 10913 10911 10909 10919 10922 10919 10919 10919 10924 10931 10932 10932 10932 10932 10936 10938 10941 10943 10945 10947 10949 10951 10954 10955 10956 10956 10957 10959 10962 10963 10963 10964 10965 10965 10965 10966 10969 10971 10972 10973 10975 10977 10980 10983 10986 10989 10992 10991 10991 10993 10992 10993 10995 10997 10998 10998 10998 10998 10997 10997 10996 10995 10994
10867 10867 10869 10870 10869 10870 10871 10872 10873 10873 10875 10876 10879 10881 10883 10885 10887 10889 10891 10893 10896 10899 10901 10904 10904 10906 10903 10902 10910 10914 10912 10913 10914 10918 10922 10924 10926 10926 10926 10930 10932 10934 10938 10940 10942 10945 10948 10950 10951 10952 10953 10955 10957 10959 10960 10961 10962 10963 10962 10963 10965 10967 10970 10970 10972 10974 10975 10977 10980 10984 10987 10990 10990 10990 10991 10991 10991 10993 10994 10995 10996 10996 10996 10996 10996 10995 10995 10994
10857 10857 10858 10860 10860 10860 10861 10862 10863 10864 10865 10867 10869 10872 10875 10877 10879 10881 10882 10884 10888 10890 10894 10896 10896 10897 10895 10894 10900 10905 10906 10907 10909 10911 10912 10916 10920 10921 10921 10924 10927 10929 10932 10936 10938 10940 10943 10945 10947 10948 10950 10952 10953 10955 10958 10958 10957 10958 10959 10961 10963 10966 10968 10968 10971 10973 10974 10976 10978 10982 10985 10988 10989 10989 10989 10989 10989 10991 10992 10993 10994 10994 10994 10995 10995 10994 10994 10993
10846 10846 10846 10848 10849 10849 10850 10852 10852 10854 10855 10857 10859 10862 10865 10868 10871 10872 10872 10875 10879 10881 10886 10888 10888 10889 10886 10886 10890 10894 10899 10901 10902 10903 10903 10907 10912 10915 10915 10916 10921 10924 10926 10930 10932 10935 10937 10939 10942 10945 10947 10948 10949 10952 10952 10951 10951 10954 10956 10959 10962 10964 10966 10966 10969 10971 10973 10974 10977 10980 10983 10985 10988 10988 10987 10987 10987 10989 10990 10991 10992 10992 10993 10993 10993 10993 10993 10992
10834 10833 10833 10835 10837 10837 10838 10840 10841 10842 10843 10845 10849 10851 10854 10858 10861 10863 10863 10865 10868 10871 10876 10880 10881 10880 10876 10876 10879 10884 10891 10895 10895 10895 10896 10898 10903 10908 10909 10911 10915 10918 10922 10924 10925 10929 10932 10934 10939 10940 10940 10941 10942 10945 10945 10945 10948 10952 10955 10958 10961 10963 10964 10964 10967 10970 10971 10973 10975 10978 10981 10983 10986 10986 10985 10984 10986 10987 10988 10988 10990 10991 10992 10992 10992 10992 10992 10992
10821 10821 10821 10821 10823 10825 10825 10827 10829 10830 10832 10833 10836 10840 10843 10847 10850 10853 10854 10853 10855 10860 10866 10871 10872 10871 10866 10864 10868 10875 10882 10886 10889 10889 10889 10891 10896 10901 10904 10906 10909 10913 10916 10915 10917 10922 10926 10932 10934 10932 10931 10933 10936 10939 10941 10943 10946 10950 10953 10955 10958 10960 10961 10962 10964 10966 10968 10970 10972 10975 10978 10981 10983 10984 10983 10982 10984 10985 10986 10986 10988 10989 10990 10991 10991 10991 10991 10991
10809 10809 10808 10807 10809 10811 10812 10814 10816 10817 10819 10820 10823 10827 10831 10835 10838 10841 10844 10841 10840 10850 10856 10857 10862 10862 10852 10850 10859 10865 10872 10880 10883 10881 10882 10884 10888 10894 10899 10900 10903 10907 10906 10906 10911 10917 10924 10928 10924 10920 10924 10929 10932 10936 10938 10941 10943 10947 10950 10952 10954 10956 10958 10960 10961 10962 10965 10967 10969 10971 10975 10978 10981 10982 10981 10980 10982 10983 10984 10985 10986 10987 10989 10989 10990 10990 10991 10991
10796 10796 10796 10794 10794 10797 10798 10799 10802 10804 10805 10807 10810 10813 10817 10822 10825 10829 10833 10828 10824 10838 10845 10842 10849 10850 10838 10839 10852 10860 10866 10873 10873 10872 10876 10878 10882 10888 10890 10892 10896 10897 10895 10900 10907 10913 10921 10917 10909 10912 10920 10924 10928 10932 10934 10936 10939 10943 10946 10949 10950 10952 10955 10957 10958 10959 10961 10963 10965 10967 10970 10974 10978 10979 10978 10978 10979 10981 10983 10984 10984 10985 10987 10988 10989 10989 10990 10990
10783 10782 10783 10782 10780 10783 10785 10785 10788 10789 10791 10794 10796 10799 10802 10807 10812 10815 10819 10815 10810 10822 10833 10832 10837 10839 10831 10832 10845 10858 10863 10863 10863 10865 10869 10872 10876 10878 10881 10886 10888 10886 10889 10899 10903 10908 10910 10901 10898 10909 10915 10918 10923 10926 10929 10931 10934 10938 10942 10944 10945 10947 10950 10953 10954 10955 10956 10957 10959 10963 10966 10970 10975 10977 10975 10975 10977 10979 10981 10982 10983 10984 10984 10986 10987 10988 10989 10989
10769 10768 10769 10769 10766 10767 10770 10770 10772 10775 10776 10779 10782 10785 10789 10792 10798 10802 10803 10801 10799 10807 10816 10822 10827 10827 10823 10822 10837 10854 10855 10852 10854 10855 10860 10866 10867 10868 10873 10878 10878 10879 10886 10892 10895 10900 10898 10889 10896 10908 10910 10913 10917 10920 10925 10928 10930 10933 10937 10938 10938 10940 10944 10946 10948 10950 10952 10953 10955 10959 10962 10966 10972 10975 10973 10973 10976 10976 10978 10980 10981 10982 10982 10984 10986 10987 10988 10988
10755 10754 10753 10755 10752 10751 10755 10755 10756 10759 10762 10764 10766 10770 10775 10778 10782 10787 10788 10784 10787 10796 10800 10807 10816 10816 10812 10813 10828 10843 10844 10842 10844 10843 10848 10855 10857 10859 10863 10866 10871 10876 10880 10882 10886 10891 10888 10884 10894 10902 10904 10908 10912 10915 10920 10922 10924 10928 10932 10931 10930 10932 10937 10941 10944 10946 10949 10951 10952 10954 10959 10962 10966 10971 10970 10970 10974 10974 10974 10977 10979 10980 10980 10982 10985 10986 10986 10987
10741 10740 10738 10739 10738 10735 10737 10739 10739 10742 10745 10748 10751 10755 10759 10763 10766 10772 10774 10768 10774 10786 10787 10791 10799 10803 10805 10805 10815 10829 10834 10834 10830 10830 10838 10843 10845 10848 10851 10858 10865 10869 10870 10872 10877 10883 10880 10880 10890 10896 10898 10901 10905 10910 10913 10915 10919 10923 10924 10922 10922 10926 10930 10935 10939 10942 10946 10947 10947 10950 10954 10957 10961 10966 10968 10967 10971 10972 10971 10973 10975 10978 10979 10980 10983 10984 10985 10986
10726 10724 10723 10723 10723 10721 10720 10722 10723 10725 10728 10730 10734 10739 10742 10746 10750 10756 10758 10754 10762 10773 10774 10777 10782 10788 10795 10797 10802 10813 10820 10819 10812 10815 10826 10828 10830 10834 10841 10850 10855 10858 10860 10862 10871 10878 10874 10875 10884 10888 10889 10894 10900 10905 10905 10908 10913 10914 10912 10913 10917 10921 10924 10928 10933 10938 10941 10941 10943 10946 10949 10953 10957 10962 10965 10965 10967 10969 10969 10968 10969 10974 10977 10979 10981 10983 10984 10985
10709 10708 10707 10706 10707 10707 10704 10704 10706 10708 10710 10712 10716 10721 10725 10729 10733 10739 10740 10740 10750 10758 10759 10765 10768 10770 10777 10784 10789 10793 10800 10802 10794 10797 10808 10811 10815 10823 10831 10840 10844 10846 10848 10853 10867 10869 10861 10865 10874 10876 10878 10887 10894 10894 10894 10900 10906 10903 10902 10908 10913 10915 10917 10921 10927 10932 10933 10935 10940 10944 10944 10949 10954 10958 10961 10964 10965 10966 10965 10962 10963 10969 10975 10977 10979 10981 10983 10984
10692 10692 10691 10688 10689 10690 10689 10688 10688 10689 10692 10695 10698 10702 10707 10711 10715 10721 10723 10725 10734 10743 10746 10750 10752 10753 10758 10765 10773 10775 10781 10785 10778 10782 10793 10798 10804 10811 10819 10826 10830 10833 10837 10847 10858 10854 10850 10857 10862 10865 10874 10883 10885 10882 10886 10896 10898 10892 10894 10903 10906 10909 10911 10915 10922 10926 10927 10933 10938 10941 10942 10946 10950 10953 10957 10961 10962 10962 10961 10957 10957 10964 10971 10975 10978 10979 10981 10983
10675 10674 10674 10671 10670 10670 10671 10672 10673 10671 10672 10676 10680 10683 10688 10693 10697 10703 10705 10710 10720 10728 10730 10732 10733 10737 10740 10745 10753 10760 10766 10767 10764 10770 10779 10784 10790 10797 10805 10811 10815 10823 10830 10838 10846 10846 10845 10848 10853 10863 10872 10875 10874 10874 10881 10890 10888 10884 10889 10897 10900 10904 10906 10909 10917 10919 10924 10933 10936 10937 10940 10943 10946 10950 10953 10956 10957 10958 10957 10954 10953 10958 10965 10972 10976 10977 10979 10981
10660 10656 10655 10654 10651 10650 10651 10654 10656 10656 10655 10658 10661 10665 10670 10674 10679 10684 10687 10695 10706 10709 10711 10712 10715 10720 10723 10726 10737 10749 10755 10752 10750 10756 10764 10771 10779 10785 10793 10798 10805 10817 10822 10829 10839 10839 10835 10840 10851 10860 10864 10865 10866 10868 10876 10882 10880 10880 10885 10891 10894 10898 10900 10905 10911 10915 10924 10932 10931 10931 10936 10939 10942 10945 10946 10948 10951 10954 10954 10952 10951 10953 10959 10968 10974 10976 10976 10978
10646 10641 10638 10636 10634 10633 10633 10634 10637 10638 10639 10641 10642 10646 10651 10654 10660 10664 10669 10679 10687 10689 10692 10694 10698 10703 10707 10715 10725 10733 10741 10739 10736 10743 10754 10764 10771 10777 10785 10791 10798 10807 10814 10822 10828 10826 10826 10836 10845 10848 10851 10856 10860 10862 10868 10873 10874 10876 10879 10884 10889 10893 10897 10902 10908 10914 10923 10927 10924 10925 10930 10934 10938 10938 10939 10942 10946 10949 10950 10950 10951 10951 10953 10960 10969 10973 10974 10975
10632 10626 10622 10619 10616 10616 10617 10616 10617 10620 10621 10623 10625 10628 10632 10635 10640 10645 10652 10660 10666 10672 10676 10676 10681 10685 10690 10703 10711 10712 10719 10725 10724 10730 10741 10750 10759 10766 10773 10778 10783 10793 10803 10807 10805 10810 10817 10822 10828 10837 10844 10850 10852 10854 10860 10867 10869 10870 10873 10878 10884 10889 10894 10900 10904 10909 10917 10918 10915 10916 10922 10929 10932 10932 10932 10935 10939 10943 10946 10949 10952 10952 10951 10953 10962 10970 10971 10972
10618 10613 10607 10603 10599 10599 10601 10600 10600 10601 10602 10604 10607 10610 10613 10616 10621 10626 10633 10641 10645 10653 10658 10658 10662 10666 10673 10688 10694 10693 10698 10706 10709 10714 10721 10731 10742 10749 10754 10759 10764 10773 10781 10780 10783 10796 10803 10806 10819 10832 10837 10838 10840 10845 10851 10856 10858 10860 10864 10868 10874 10882 10889 10893 10895 10899 10905 10906 10902 10906 10917 10926 10927 10926 10925 10927 10932 10938 10944 10948 10951 10952 10952 10950 10955 10964 10968 10969
10603 10599 10593 10587 10580 10580 10585 10585 10583 10583 10584 10586 10587 10590 10594 10597 10602 10607 10615 10621 10625 10633 10639 10641 10643 10646 10657 10672 10676 10677 10681 10685 10691 10698 10705 10714 10724 10731 10737 10741 10743 10748 10753 10756 10768 10783 10789 10798 10812 10817 10817 10821 10828 10836 10839 10842 10849 10854 10854 10859 10870 10880 10882 10883 10885 10890 10894 10895 10895 10904 10917 10921 10918 10918 10918 10921 10929 10934 10940 10946 10949 10952 10952 10949 10950 10956 10963 10965
10586 10584 10579 10573 10564 10561 10567 10570 10568 10566 10566 10566 10568 10570 10574 10578 10583 10587 10594 10600 10605 10614 10619 10623 10627 10629 10640 10654 10659 10662 10665 10668 10675 10683 10690 10699 10707 10716 10724 10726 10727 10734 10743 10756 10771 10781 10787 10797 10801 10801 10806 10815 10824 10828 10828 10834 10845 10847 10847 10859 10871 10872 10869 10873 10878 10881 10885 10891 10896 10905 10914 10913 10911 10914 10915 10920 10927 10930 10935 10942 10946 10948 10950 10950 10947 10948 10955 10961
10570 10567 10563 10559 10552 10548 10551 10552 10551 10549 10548 10548 10549 10551 10555 10559 10563 10567 10573 10579 10586 10594 10599 10604 10611 10614 10621 10634 10640 10643 10647 10653 10660 10667 10674 10684 10692 10702 10709 10711 10715 10724 10736 10755 10771 10776 10785 10794 10793 10796 10809 10817 10821 10821 10821 10828 10836 10839 10847 10859 10860 10855 10858 10867 10873 10876 10883 10891 10896 10900 10905 10906 10906 10910 10911 10916 10924 10927 10931 10937 10940 10942 10946 10948 10945 10942 10947 10954
10557 10554 10550 10546 10540 10537 10537 10536 10534 10532 10531 10531 10532 10534 10538 10540 10542 10547 10554 10560 10566 10573 10579 10585 10594 10597 10602 10610 10617 10623 10629 10637 10645 10650 10657 10667 10676 10685 10693 10698 10705 10712 10724 10744 10756 10762 10777 10787 10784 10790 10806 10812 10811 10810 10812 10821 10831 10839 10847 10849 10845 10847 10857 10866 10871 10877 10883 10889 10891 10893 10896 10899 10904 10905 10904 10911 10920 10922 10926 10932 10936 10938 10941 10944 10943 10938 10939 10946
10547 10543 10539 10535 10530 10527 10524 10522 10520 10518 10516 10517 10517 10519 10522 10523 10525 10529 10536 10542 10548 10553 10560 10568 10575 10579 10583 10588 10595 10606 10614 10621 10629 10634 10640 10651 10661 10668 10676 10685 10694 10702 10714 10731 10740 10748 10765 10775 10773 10780 10793 10795 10790 10792 10803 10818 10830 10836 10838 10837 10839 10847 10855 10860 10866 10872 10876 10880 10882 10884 10888 10896 10900 10897 10896 10905 10914 10916 10920 10928 10933 10936 10936 10938 10939 10936 10933 10937
10538 10532 10528 10524 10521 10518 10515 10511 10508 10506 10504 10503 10504 10505 10506 10507 10510 10515 10520 10525 10530 10536 10542 10550 10556 10559 10563 10569 10578 10590 10600 10606 10612 10616 10624 10637 10646 10652 10661 10672 10681 10691 10702 10716 10728 10738 10751 10763 10767 10771 10777 10776 10774 10783 10802 10818 10824 10827 10831 10834 10839 10847 10851 10853 10860 10866 10869 10874 10876 10879 10886 10892 10891 10888 10891 10900 10907 10910 10915 10922 10929 10933 10933 10932 10933 10933 10931 10929
10530 10524 10518 10513 10510 10507 10505 10503 10499 10496 10494 10492 10492 10493 10491 10492 10496 10502 10507 10509 10514 10522 10526 10532 10538 10541 10545 10551 10560 10573 10584 10589 10593 10599 10610 10623 10631 10637 10646 10658 10669 10681 10691 10704 10719 10728 10737 10753 10761 10758 10762 10766 10772 10787 10804 10812 10815 10818 10822 10826 10832 10839 10842 10844 10854 10863 10867 10871 10873 10876 10883 10883 10880 10883 10889 10895 10900 10904 10907 10914 10922 10927 10928 10927 10927 10928 10927 10923
10522 10518 10512 10505 10501 10497 10493 10492 10490 10487 10485 10483 10483 10482 10480 10479 10483 10489 10493 10495 10501 10507 10510 10515 10522 10524 10528 10533 10542 10556 10565 10568 10575 10586 10597 10608 10617 10623 10632 10644 10656 10669 10680 10692 10706 10714 10724 10741 10749 10745 10750 10761 10772 10787 10795 10798 10803 10805 10808 10814 10818 10824 10830 10837 10850 10859 10860 10863 10865 10869 10874 10875 10875 10881 10885 10888 10893 10897 10900 10908 10915 10919 10921 10921 10921 10922 10922 10918
10513 10512 10509 10501 10494 10490 10485 10482 10479 10477 10477 10475 10474 10473 10471 10471 10472 10475 10478 10482 10488 10494 10495 10500 10506 10508 10510 10515 10525 10537 10543 10548 10562 10575 10584 10594 10603 10610 10619 10630 10643 10657 10669 10681 10693 10703 10713 10728 10737 10737 10743 10755 10766 10776 10781 10785 10791 10792 10794 10802 10808 10816 10826 10834 10842 10845 10846 10850 10854 10859 10866 10867 10870 10876 10878 10881 10886 10890 10896 10903 10907 10911 10913 10915 10914 10915 10916 10913
10506 10502 10502 10498 10491 10486 10480 10476 10471 10469 10468 10466 10465 10464 10463 10463 10463 10464 10467 10470 10475 10480 10482 10487 10491 10493 10495 10500 10509 10518 10525 10536 10551 10562 10571 10579 10587 10596 10606 10617 10631 10645 10658 10670 10682 10692 10702 10716 10727 10728 10732 10740 10749 10759 10766 10771 10775 10779 10785 10796 10806 10815 10822 10825 10829 10831 10837 10844 10847 10853 10860 10860 10863 10870 10872 10874 10879 10884 10891 10897 10900 10903 10906 10908 10909 10908 10908 10908
10504 10494 10491 10490 10487 10481 10475 10471 10466 10462 10460 10458 10457 10456 10455 10455 10455 10455 10457 10459 10463 10466 10470 10475 10477 10479 10482 10486 10494 10503 10513 10527 10539 10547 10556 10564 10572 10583 10594 10605 10618 10632 10645 10658 10670 10681 10692 10706 10715 10715 10716 10724 10733 10745 10754 10757 10760 10768 10780 10792 10803 10809 10812 10815 10819 10826 10836 10841 10842 10851 10857 10855 10858 10865 10866 10868 10874 10879 10884 10889 10894 10898 10900 10902 10903 10901 10902 10903
10503 10494 10485 10482 10480 10475 10470 10466 10461 10457 10454 10451 10450 10449 10448 10448 10447 10447 10448 10450 10452 10454 10458 10462 10464 10466 10470 10475 10481 10490 10502 10516 10526 10534 10543 10551 10559 10571 10583 10594 10606 10618 10632 10647 10660 10671 10683 10695 10701 10704 10709 10719 10730 10741 10749 10751 10756 10767 10778 10788 10796 10800 10803 10805 10810 10822 10834 10835 10837 10848 10851 10847 10852 10859 10861 10864 10871 10874 10877 10882 10889 10893 10895 10896 10896 10896 10897 10899
10498 10494 10486 10478 10474 10470 10465 10461 10457 10453 10449 10445 10443 10442 10441 10440 10440 10440 10440 10441 10443 10445 10448 10450 10453 10457 10460 10464 10471 10480 10491 10504 10513 10521 10530 10538 10547 10560 10572 10582 10593 10605 10620 10637 10651 10662 10673 10683 10692 10699 10708 10718 10728 10734 10739 10745 10753 10764 10774 10781 10787 10792 10796 10800 10808 10821 10828 10828 10834 10842 10841 10840 10846 10852 10856 10861 10865 10868 10870 10875 10883 10889 10889 10889 10890 10891 10893 10894
10492 10489 10484 10477 10471 10464 10459 10455 10451 10447 10444 10440 10437 10435 10434 10434 10433 10433 10433 10434 10435 10437 10438 10440 10444 10448 10451 10455 10461 10470 10481 10493 10500 10508 10519 10527 10535 10548 10561 10571 10582 10595 10609 10625 10641 10652 10663 10673 10684 10694 10702 10710 10716 10720 10726 10737 10748 10758 10765 10772 10780 10787 10793 10800 10809 10816 10820 10825 10831 10832 10832 10835 10839 10844 10852 10856 10858 10863 10865 10867 10876 10883 10884 10883 10884 10885 10887 10890
10488 10483 10478 10473 10468 10461 10456 10451 10446 10442 10439 10435 10432 10430 10428 10428 10427 10427 10427 10427 10428 10429 10430 10432 10436 10439 10442 10447 10452 10460 10471 10481 10488 10496 10508 10517 10525 10537 10551 10561 10572 10586 10599 10615 10630 10643 10654 10665 10676 10685 10691 10697 10703 10708 10718 10733 10744 10753 10760 10766 10775 10782 10789 10798 10803 10806 10813 10820 10821 10820 10823 10828 10831 10837 10845 10848 10852 10859 10860 10861 10870 10877 10878 10878 10878 10880 10882 10884
10487 10481 10475 10469 10464 10459 10453 10448 10443 10439 10435 10431 10428 10425 10423 10422 10422 10422 10421 10420 10421 10422 10423 10425 10428 10430 10435 10441 10446 10453 10462 10470 10476 10485 10498 10509 10516 10526 10539 10551 10563 10576 10590 10605 10620 10633 10645 10657 10667 10676 10681 10686 10693 10701 10713 10726 10738 10748 10756 10761 10766 10772 10780 10787 10791 10795 10804 10810 10810 10811 10815 10819 10823 10828 10836 10842 10849 10855 10855 10856 10864 10871 10872 10872 10873 10874 10876 10879
10485 10480 10474 10468 10462 10456 10451 10445 10440 10436 10432 10428 10424 10421 10419 10417 10416 10417 10416 10415 10416 10416 10416 10419 10421 10424 10429 10436 10441 10447 10454 10459 10466 10476 10489 10501 10508 10515 10527 10540 10553 10566 10579 10594 10609 10622 10636 10649 10659 10666 10671 10676 10685 10695 10705 10717 10731 10742 10748 10751 10754 10759 10766 10775 10781 10788 10795 10799 10800 10803 10806 10810 10814 10821 10829 10836 10844 10850 10851 10853 10860 10866 10867 10868 10869 10869 10871 10875
10483 10478 10473 10467 10461 10455 10449 10443 10438 10434 10429 10425 10421 10418 10415 10413 10412 10411 10411 10410 10410 10410 10411 10413 10416 10419 10424 10429 10434 10439 10445 10451 10458 10467 10478 10491 10499 10504 10516 10530 10543 10556 10570 10584 10599 10612 10626 10640 10650 10656 10661 10667 10676 10687 10698 10710 10722 10730 10732 10735 10737 10742 10753 10766 10774 10780 10784 10787 10790 10795 10798 10800 10804 10812 10821 10827 10836 10846 10849 10850 10856 10860 10861 10863 10864 10863 10866 10871